Time,TemperatureF,DewpointF,PressureIn,WindDirection,WindDirectionDegrees,WindSpeedMPH,WindSpeedGustMPH,Humidity,HourlyPrecipIn,Conditions,Clouds,dailyrainin,SoftwareType,DateUTC
2013-04-06 00:05:00,38.7,24.3,29.82,ENE,68,0.0,0.0,56,0.00,,,-99.99,Weather View 32 v60,2013-04-06 04:05:00,
2013-04-06 00:10:00,38.6,24.2,29.82,NE,45,0.0,0.0,56,0.00,,,-99.99,Weather View 32 v60,2013-04-06 04:10:00,
2013-04-06 00:15:00,38.5,24.1,29.82,ENE,68,0.0,0.0,56,0.00,,,-99.99,Weather View 32 v60,2013-04-06 04:15:00,
2013-04-06 00:20:00,38.3,23.5,29.83,NE,45,0.0,0.0,55,0.00,,,-99.99,Weather View 32 v60,2013-04-06 04:20:00,
2013-04-06 00:25:00,38.2,23.9,29.83,ENE,68,0.0,0.0,56,0.00,,,-99.99,Weather View 32 v60,2013-04-06 04:25:00,
2013-04-06 00:30:00,38.1,23.3,29.83,NE,45,0.0,0.0,55,0.00,,,-99.99,Weather View 32 v60,2013-04-06 04:30:00,
2013-04-06 00:39:00,38.0,23.2,29.83,East,90,0.0,0.0,55,0.00,,,-99.99,Weather View 32 v60,2013-04-06 04:39:00,
2013-04-06 00:45:00,37.7,23.0,29.84,ENE,68,0.0,0.0,55,0.00,,,-99.99,Weather View 32 v60,2013-04-06 04:45:00,
2013-04-06 00:50:00,37.6,22.9,29.84,ENE,68,0.0,0.0,55,0.00,,,-99.99,Weather View 32 v60,2013-04-06 04:50:00,
2013-04-06 01:00:00,37.4,22.7,29.84,NNE,23,0.0,0.0,55,0.00,,,-99.99,Weather View 32 v60,2013-04-06 05:00:00,
2013-04-06 01:05:00,37.3,22.6,29.84,ENE,68,0.0,0.0,55,0.00,,,-99.99,Weather View 32 v60,2013-04-06 05:05:00,
2013-04-06 01:10:00,37.2,22.5,29.84,ENE,68,0.0,0.0,55,0.00,,,-99.99,Weather View 32 v60,2013-04-06 05:10:00,
2013-04-06 01:20:00,36.9,22.2,29.85,ENE,68,0.0,0.0,55,0.00,,,-99.99,Weather View 32 v60,2013-04-06 05:20:00,
2013-04-06 01:25:00,36.9,22.2,29.85,ENE,68,0.0,0.0,55,0.00,,,-99.99,Weather View 32 v60,2013-04-06 05:25:00,
2013-04-06 01:35:00,36.7,22.5,29.85,ENE,68,0.0,0.0,56,0.00,,,-99.99,Weather View 32 v60,2013-04-06 05:35:00,
2013-04-06 01:40:00,36.5,22.3,29.86,ENE,68,0.0,0.0,56,0.00,,,-99.99,Weather View 32 v60,2013-04-06 05:40:00,
2013-04-06 01:45:00,36.4,22.2,29.86,ENE,68,0.0,0.0,56,0.00,,,-99.99,Weather View 32 v60,2013-04-06 05:45:00,
2013-04-06 01:55:00,36.2,22.0,29.86,ENE,68,0.0,0.0,56,0.00,,,-99.99,Weather View 32 v60,2013-04-06 05:55:00,
2013-04-06 02:00:00,36.2,22.0,29.86,NE,45,0.0,0.0,56,0.00,,,-99.99,Weather View 32 v60,2013-04-06 06:00:00,
2013-04-06 02:10:00,35.9,22.1,29.87,ENE,68,0.0,0.0,57,0.00,,,-99.99,Weather View 32 v60,2013-04-06 06:10:00,
2013-04-06 02:20:00,35.6,21.9,29.87,East,90,0.0,0.0,57,0.00,,,-99.99,Weather View 32 v60,2013-04-06 06:20:00,
2013-04-06 02:25:00,35.5,21.8,29.87,NE,45,0.0,0.0,57,0.00,,,-99.99,Weather View 32 v60,2013-04-06 06:25:00,
2013-04-06 02:30:00,35.4,21.7,29.88,ENE,68,0.0,0.0,57,0.00,,,-99.99,Weather View 32 v60,2013-04-06 06:30:00,
2013-04-06 02:40:00,35.2,21.9,29.88,NE,45,0.0,0.0,58,0.00,,,-99.99,Weather View 32 v60,2013-04-06 06:40:00,
2013-04-06 02:55:00,35.2,21.9,29.89,NE,45,0.0,0.0,58,0.00,,,-99.99,Weather View 32 v60,2013-04-06 06:55:00,
2013-04-06 03:00:00,35.2,21.9,29.89,NNE,23,0.0,0.0,58,0.00,,,-99.99,Weather View 32 v60,2013-04-06 07:00:00,
2013-04-06 03:05:00,35.2,21.9,29.89,ENE,68,0.0,0.0,58,0.00,,,-99.99,Weather View 32 v60,2013-04-06 07:05:00,
2013-04-06 03:10:00,35.1,21.4,29.89,ENE,68,0.0,0.0,57,0.00,,,-99.99,Weather View 32 v60,2013-04-06 07:10:00,
2013-04-06 03:15:00,35.0,21.3,29.89,ENE,68,0.0,0.0,57,0.00,,,-99.99,Weather View 32 v60,2013-04-06 07:15:00,
2013-04-06 03:25:00,34.7,20.6,29.90,ENE,68,0.0,0.0,56,0.00,,,-99.99,Weather View 32 v60,2013-04-06 07:25:00,
2013-04-06 03:30:00,34.6,20.5,29.90,ENE,68,0.0,0.0,56,0.00,,,-99.99,Weather View 32 v60,2013-04-06 07:30:00,
2013-04-06 03:40:00,34.4,20.3,29.91,ENE,68,0.0,0.0,56,0.00,,,-99.99,Weather View 32 v60,2013-04-06 07:40:00,
2013-04-06 03:45:00,34.3,20.2,29.92,ENE,68,0.0,0.0,56,0.00,,,-99.99,Weather View 32 v60,2013-04-06 07:45:00,
2013-04-06 03:50:00,34.2,20.5,29.92,ENE,68,0.0,0.0,57,0.00,,,-99.99,Weather View 32 v60,2013-04-06 07:50:00,
2013-04-06 03:55:00,34.1,20.4,29.92,ENE,68,0.0,0.0,57,0.00,,,-99.99,Weather View 32 v60,2013-04-06 07:55:00,
2013-04-06 04:05:00,33.9,20.3,29.93,NNE,23,0.0,0.0,57,0.00,,,-99.99,Weather View 32 v60,2013-04-06 08:05:00,
2013-04-06 04:10:00,33.8,20.2,29.94,ENE,68,0.0,0.0,57,0.00,,,-99.99,Weather View 32 v60,2013-04-06 08:10:00,
2013-04-06 04:20:00,33.7,19.7,29.94,ENE,68,0.0,0.0,56,0.00,,,-99.99,Weather View 32 v60,2013-04-06 08:20:00,
2013-04-06 04:25:00,33.7,20.1,29.95,ENE,68,0.0,0.0,57,0.00,,,-99.99,Weather View 32 v60,2013-04-06 08:25:00,
2013-04-06 04:30:00,33.7,20.1,29.95,East,90,0.0,0.0,57,0.00,,,-99.99,Weather View 32 v60,2013-04-06 08:30:00,
2013-04-06 04:40:00,33.6,19.6,29.95,East,90,0.0,0.0,56,0.00,,,-99.99,Weather View 32 v60,2013-04-06 08:40:00,
2013-04-06 04:45:00,33.5,19.0,29.95,ENE,68,0.0,0.0,55,0.00,,,-99.99,Weather View 32 v60,2013-04-06 08:45:00,
2013-04-06 04:55:00,33.3,18.0,29.96,NNE,23,0.0,0.0,53,0.00,,,-99.99,Weather View 32 v60,2013-04-06 08:55:00,
2013-04-06 05:05:00,33.1,17.4,29.97,ENE,68,0.0,0.0,52,0.00,,,-99.99,Weather View 32 v60,2013-04-06 09:05:00,
2013-04-06 05:15:00,32.9,17.2,29.98,ENE,68,0.0,0.0,52,0.00,,,-99.99,Weather View 32 v60,2013-04-06 09:15:00,
2013-04-06 05:25:00,32.7,16.1,29.99,ENE,68,0.0,0.0,50,0.00,,,-99.99,Weather View 32 v60,2013-04-06 09:25:00,
2013-04-06 05:30:00,32.5,15.9,29.99,ESE,113,0.0,0.0,50,0.00,,,-99.99,Weather View 32 v60,2013-04-06 09:30:00,
2013-04-06 05:40:00,32.2,15.6,30.00,NE,45,0.0,0.0,50,0.00,,,-99.99,Weather View 32 v60,2013-04-06 09:40:00,
2013-04-06 05:45:00,32.1,15.5,30.00,ENE,68,0.0,0.0,50,0.00,,,-99.99,Weather View 32 v60,2013-04-06 09:45:00,
2013-04-06 05:50:00,32.1,15.5,30.01,NE,45,0.0,0.0,50,0.00,,,-99.99,Weather View 32 v60,2013-04-06 09:50:00,
2013-04-06 05:55:00,32.0,15.4,30.01,ENE,68,0.0,0.0,50,0.00,,,-99.99,Weather View 32 v60,2013-04-06 09:55:00,
2013-04-06 06:05:00,31.8,15.3,30.02,ENE,68,0.0,0.0,50,0.00,,,-99.99,Weather View 32 v60,2013-04-06 10:05:00,
2013-04-06 06:15:00,31.6,15.1,30.03,NE,45,0.0,0.0,50,0.00,,,-99.99,Weather View 32 v60,2013-04-06 10:15:00,
2013-04-06 06:25:00,31.5,15.0,30.04,NNE,23,0.0,0.0,50,0.00,,,-99.99,Weather View 32 v60,2013-04-06 10:25:00,
2013-04-06 06:30:00,31.4,14.9,30.04,East,90,0.0,0.0,50,0.00,,,-99.99,Weather View 32 v60,2013-04-06 10:30:00,
2013-04-06 06:40:00,31.1,14.6,30.05,SSE,158,0.0,0.0,50,0.00,,,-99.99,Weather View 32 v60,2013-04-06 10:40:00,
2013-04-06 06:50:00,30.9,14.4,30.05,NNE,23,0.0,0.0,50,0.00,,,-99.99,Weather View 32 v60,2013-04-06 10:50:00,
2013-04-06 06:55:00,30.8,14.3,30.06,ENE,68,0.0,0.0,50,0.00,,,-99.99,Weather View 32 v60,2013-04-06 10:55:00,
2013-04-06 07:00:00,30.7,14.2,30.06,ENE,68,0.0,0.0,50,0.00,,,-99.99,Weather View 32 v60,2013-04-06 11:00:00,
2013-04-06 07:05:00,30.7,14.2,30.06,ENE,68,0.0,0.0,50,0.00,,,-99.99,Weather View 32 v60,2013-04-06 11:05:00,
2013-04-06 07:20:00,30.6,13.7,30.07,ENE,68,0.0,0.0,49,0.00,,,-99.99,Weather View 32 v60,2013-04-06 11:20:00,
2013-04-06 07:30:00,30.5,13.1,30.08,ENE,68,0.0,0.0,48,0.00,,,-99.99,Weather View 32 v60,2013-04-06 11:30:00,
2013-04-06 07:40:00,30.5,13.1,30.10,ENE,68,0.0,0.0,48,0.00,,,-99.99,Weather View 32 v60,2013-04-06 11:40:00,
2013-04-06 07:50:00,30.7,13.3,30.10,ENE,68,0.0,0.0,48,0.00,,,-99.99,Weather View 32 v60,2013-04-06 11:50:00,
2013-04-06 08:00:00,31.1,13.2,30.10,ENE,68,0.0,0.0,47,0.00,,,-99.99,Weather View 32 v60,2013-04-06 12:00:00,
2013-04-06 08:05:00,31.2,12.8,30.10,East,90,0.0,0.0,46,0.00,,,-99.99,Weather View 32 v60,2013-04-06 12:05:00,
2013-04-06 08:10:00,31.3,12.4,30.10,NE,45,0.0,0.0,45,0.00,,,-99.99,Weather View 32 v60,2013-04-06 12:10:00,
2013-04-06 08:15:00,31.5,12.1,30.10,ENE,68,0.0,0.0,44,0.00,,,-99.99,Weather View 32 v60,2013-04-06 12:15:00,
2013-04-06 08:25:00,31.7,11.7,30.11,ENE,68,0.0,0.0,43,0.00,,,-99.99,Weather View 32 v60,2013-04-06 12:25:00,
2013-04-06 08:35:00,31.6,11.1,30.11,ENE,68,0.0,0.0,42,0.00,,,-99.99,Weather View 32 v60,2013-04-06 12:35:00,
2013-04-06 08:40:00,31.6,11.1,30.11,SE,135,0.0,0.0,42,0.00,,,-99.99,Weather View 32 v60,2013-04-06 12:40:00,
2013-04-06 08:50:00,32.0,12.0,30.11,ENE,68,0.0,0.0,43,0.00,,,-99.99,Weather View 32 v60,2013-04-06 12:50:00,
2013-04-06 09:00:00,32.6,12.6,30.11,ENE,68,0.0,0.0,43,0.00,,,-99.99,Weather View 32 v60,2013-04-06 13:00:00,
2013-04-06 09:10:00,33.1,13.0,30.12,ENE,68,0.0,0.0,43,0.00,,,-99.99,Weather View 32 v60,2013-04-06 13:10:00,
2013-04-06 09:20:00,33.2,12.6,30.12,ENE,68,0.0,0.0,42,0.00,,,-99.99,Weather View 32 v60,2013-04-06 13:20:00,
2013-04-06 09:25:00,33.3,12.7,30.12,ENE,68,0.0,0.0,42,0.00,,,-99.99,Weather View 32 v60,2013-04-06 13:25:00,
2013-04-06 09:30:00,33.3,12.1,30.11,ENE,68,0.0,0.0,41,0.00,,,-99.99,Weather View 32 v60,2013-04-06 13:30:00,
2013-04-06 09:40:00,33.4,11.6,30.12,ENE,68,0.0,0.0,40,0.00,,,-99.99,Weather View 32 v60,2013-04-06 13:40:00,
2013-04-06 09:45:00,33.6,11.8,30.13,ENE,68,0.0,0.0,40,0.00,,,-99.99,Weather View 32 v60,2013-04-06 13:45:00,
2013-04-06 09:55:00,34.0,12.2,30.13,ENE,68,0.0,0.0,40,0.00,,,-99.99,Weather View 32 v60,2013-04-06 13:55:00,
2013-04-06 10:00:00,34.1,12.3,30.14,SE,135,0.0,0.0,40,0.00,,,-99.99,Weather View 32 v60,2013-04-06 14:00:00,
2013-04-06 10:10:00,34.7,12.8,30.14,SE,135,0.0,0.0,40,0.00,,,-99.99,Weather View 32 v60,2013-04-06 14:10:00,
2013-04-06 10:15:00,34.8,12.3,30.14,ENE,68,0.0,0.0,39,0.00,,,-99.99,Weather View 32 v60,2013-04-06 14:15:00,
2013-04-06 10:20:00,35.1,12.6,30.14,ENE,68,0.0,0.0,39,0.00,,,-99.99,Weather View 32 v60,2013-04-06 14:20:00,
2013-04-06 10:30:00,35.4,11.7,30.14,SE,135,0.0,0.0,37,0.00,,,-99.99,Weather View 32 v60,2013-04-06 14:30:00,
2013-04-06 10:40:00,35.8,12.0,30.14,ENE,68,0.0,0.0,37,0.00,,,-99.99,Weather View 32 v60,2013-04-06 14:40:00,
2013-04-06 10:45:00,35.8,12.0,30.14,ENE,68,0.0,0.0,37,0.00,,,-99.99,Weather View 32 v60,2013-04-06 14:45:00,
2013-04-06 10:50:00,36.9,13.0,30.15,ENE,68,0.0,0.0,37,0.00,,,-99.99,Weather View 32 v60,2013-04-06 14:50:00,
2013-04-06 11:00:00,37.4,12.2,30.15,ENE,68,0.0,0.0,35,0.00,,,-99.99,Weather View 32 v60,2013-04-06 15:00:00,
2013-04-06 11:10:00,38.3,13.0,30.15,ENE,68,0.0,0.0,35,0.00,,,-99.99,Weather View 32 v60,2013-04-06 15:10:00,
2013-04-06 11:20:00,38.9,12.2,30.15,ENE,68,0.0,0.0,33,0.00,,,-99.99,Weather View 32 v60,2013-04-06 15:20:00,
2013-04-06 11:25:00,39.3,12.6,30.15,SE,135,0.0,0.0,33,0.00,,,-99.99,Weather View 32 v60,2013-04-06 15:25:00,
2013-04-06 11:35:00,40.1,12.6,30.15,ENE,68,0.0,0.0,32,0.00,,,-99.99,Weather View 32 v60,2013-04-06 15:35:00,
2013-04-06 11:45:00,40.0,11.8,30.15,ENE,68,0.0,0.0,31,0.00,,,-99.99,Weather View 32 v60,2013-04-06 15:45:00,
2013-04-06 11:55:00,40.9,12.6,30.15,ENE,68,0.0,0.0,31,0.00,,,-99.99,Weather View 32 v60,2013-04-06 15:55:00,
2013-04-06 12:00:00,41.0,11.1,30.15,ENE,68,0.0,0.0,29,0.00,,,-99.99,Weather View 32 v60,2013-04-06 16:00:00,
2013-04-06 12:10:00,41.5,12.3,30.15,ENE,68,0.0,0.0,30,0.00,,,-99.99,Weather View 32 v60,2013-04-06 16:10:00,
2013-04-06 12:15:00,41.9,13.4,30.15,SE,135,0.0,0.0,31,0.00,,,-99.99,Weather View 32 v60,2013-04-06 16:15:00,
2013-04-06 12:25:00,42.7,13.4,30.15,ENE,68,0.0,0.0,30,0.00,,,-99.99,Weather View 32 v60,2013-04-06 16:25:00,
2013-04-06 12:35:00,43.3,13.1,30.15,ENE,68,0.0,0.0,29,0.00,,,-99.99,Weather View 32 v60,2013-04-06 16:35:00,
2013-04-06 12:40:00,43.3,13.1,30.15,SE,135,0.0,0.0,29,0.00,,,-99.99,Weather View 32 v60,2013-04-06 16:40:00,
2013-04-06 12:45:00,43.4,13.2,30.15,SE,135,0.0,0.0,29,0.00,,,-99.99,Weather View 32 v60,2013-04-06 16:45:00,
2013-04-06 12:55:00,43.5,13.3,30.15,SE,135,0.0,0.0,29,0.00,,,-99.99,Weather View 32 v60,2013-04-06 16:55:00,
2013-04-06 13:00:00,43.5,12.5,30.15,ENE,68,0.0,0.0,28,0.00,,,-99.99,Weather View 32 v60,2013-04-06 17:00:00,
2013-04-06 13:10:00,43.8,13.6,30.15,ENE,68,0.0,0.0,29,0.00,,,-99.99,Weather View 32 v60,2013-04-06 17:10:00,
2013-04-06 13:20:00,44.2,13.1,30.15,ENE,68,0.0,0.0,28,0.00,,,-99.99,Weather View 32 v60,2013-04-06 17:20:00,
2013-04-06 13:25:00,44.0,12.1,30.15,ENE,68,0.0,0.0,27,0.00,,,-99.99,Weather View 32 v60,2013-04-06 17:25:00,
2013-04-06 13:30:00,44.3,13.2,30.15,ENE,68,0.0,0.0,28,0.00,,,-99.99,Weather View 32 v60,2013-04-06 17:30:00,
2013-04-06 13:40:00,44.0,12.1,30.15,ENE,68,0.0,0.0,27,0.00,,,-99.99,Weather View 32 v60,2013-04-06 17:40:00,
2013-04-06 13:45:00,43.9,11.2,30.15,ENE,68,0.0,0.0,26,0.00,,,-99.99,Weather View 32 v60,2013-04-06 17:45:00,
2013-04-06 13:50:00,44.1,12.2,30.15,ENE,68,0.0,0.0,27,0.00,,,-99.99,Weather View 32 v60,2013-04-06 17:50:00,
2013-04-06 13:55:00,44.1,12.2,30.15,ENE,68,0.0,0.0,27,0.00,,,-99.99,Weather View 32 v60,2013-04-06 17:55:00,
2013-04-06 14:00:00,44.5,12.5,30.15,SE,135,0.0,0.0,27,0.00,,,-99.99,Weather View 32 v60,2013-04-06 18:00:00,
2013-04-06 14:10:00,44.6,10.9,30.15,ENE,68,0.0,0.0,25,0.00,,,-99.99,Weather View 32 v60,2013-04-06 18:10:00,
2013-04-06 14:20:00,44.7,11.9,30.15,ENE,68,0.0,0.0,26,0.00,,,-99.99,Weather View 32 v60,2013-04-06 18:20:00,
2013-04-06 14:25:00,44.8,12.8,30.15,ENE,68,0.0,0.0,27,0.00,,,-99.99,Weather View 32 v60,2013-04-06 18:25:00,
2013-04-06 14:30:00,44.8,12.0,30.15,ENE,68,0.0,0.0,26,0.00,,,-99.99,Weather View 32 v60,2013-04-06 18:30:00,
2013-04-06 14:35:00,44.8,12.0,30.15,ENE,68,0.0,0.0,26,0.00,,,-99.99,Weather View 32 v60,2013-04-06 18:35:00,
2013-04-06 14:45:00,44.7,11.9,30.14,ENE,68,0.0,0.0,26,0.00,,,-99.99,Weather View 32 v60,2013-04-06 18:45:00,
2013-04-06 14:55:00,44.5,12.5,30.14,ENE,68,0.0,0.0,27,0.00,,,-99.99,Weather View 32 v60,2013-04-06 18:55:00,
2013-04-06 15:05:00,44.4,11.6,30.14,ENE,68,0.0,0.0,26,0.00,,,-99.99,Weather View 32 v60,2013-04-06 19:05:00,
2013-04-06 15:10:00,44.4,12.5,30.14,ENE,68,0.0,0.0,27,0.00,,,-99.99,Weather View 32 v60,2013-04-06 19:10:00,
2013-04-06 15:20:00,44.2,12.3,30.14,ENE,68,0.0,0.0,27,0.00,,,-99.99,Weather View 32 v60,2013-04-06 19:20:00,
2013-04-06 15:30:00,44.1,11.4,30.14,ENE,68,0.0,0.0,26,0.00,,,-99.99,Weather View 32 v60,2013-04-06 19:30:00,
2013-04-06 15:35:00,44.0,11.3,30.14,ENE,68,0.0,0.0,26,0.00,,,-99.99,Weather View 32 v60,2013-04-06 19:35:00,
2013-04-06 15:45:00,43.8,11.1,30.14,SE,135,0.0,0.0,26,0.00,,,-99.99,Weather View 32 v60,2013-04-06 19:45:00,
2013-04-06 15:55:00,43.8,11.1,30.13,SE,135,0.0,0.0,26,0.00,,,-99.99,Weather View 32 v60,2013-04-06 19:55:00,
2013-04-06 16:05:00,43.9,11.2,30.14,SE,135,0.0,0.0,26,0.00,,,-99.99,Weather View 32 v60,2013-04-06 20:05:00,
2013-04-06 16:10:00,44.0,11.3,30.14,SE,135,0.0,0.0,26,0.00,,,-99.99,Weather View 32 v60,2013-04-06 20:10:00,
2013-04-06 16:15:00,44.2,11.4,30.14,SE,135,0.0,0.0,26,0.00,,,-99.99,Weather View 32 v60,2013-04-06 20:15:00,
2013-04-06 16:20:00,44.2,11.4,30.14,SE,135,0.0,0.0,26,0.00,,,-99.99,Weather View 32 v60,2013-04-06 20:20:00,
2013-04-06 16:30:00,44.3,11.5,30.14,SE,135,0.0,0.0,26,0.00,,,-99.99,Weather View 32 v60,2013-04-06 20:30:00,
2013-04-06 16:40:00,44.5,11.7,30.14,SE,135,0.0,0.0,26,0.00,,,-99.99,Weather View 32 v60,2013-04-06 20:40:00,
2013-04-06 16:45:00,44.5,10.8,30.15,SE,135,0.0,0.0,25,0.00,,,-99.99,Weather View 32 v60,2013-04-06 20:45:00,
2013-04-06 16:55:00,44.6,11.8,30.15,SE,135,0.0,0.0,26,0.00,,,-99.99,Weather View 32 v60,2013-04-06 20:55:00,
2013-04-06 17:05:00,44.7,11.0,30.15,SE,135,0.0,0.0,25,0.00,,,-99.99,Weather View 32 v60,2013-04-06 21:05:00,
2013-04-06 17:15:00,44.7,11.0,30.15,SE,135,0.0,0.0,25,0.00,,,-99.99,Weather View 32 v60,2013-04-06 21:15:00,
2013-04-06 17:20:00,44.7,11.0,30.15,SE,135,0.0,0.0,25,0.00,,,-99.99,Weather View 32 v60,2013-04-06 21:20:00,
2013-04-06 17:25:00,44.7,11.0,30.16,SE,135,0.0,0.0,25,0.00,,,-99.99,Weather View 32 v60,2013-04-06 21:25:00,
2013-04-06 17:35:00,44.5,10.8,30.16,SE,135,0.0,0.0,25,0.00,,,-99.99,Weather View 32 v60,2013-04-06 21:35:00,
2013-04-06 17:45:00,44.4,10.7,30.16,SE,135,0.0,0.0,25,0.00,,,-99.99,Weather View 32 v60,2013-04-06 21:45:00,
2013-04-06 17:55:00,44.1,10.5,30.17,SE,135,0.0,0.0,25,0.00,,,-99.99,Weather View 32 v60,2013-04-06 21:55:00,
2013-04-06 18:05:00,43.8,10.2,30.18,SE,135,0.0,0.0,25,0.00,,,-99.99,Weather View 32 v60,2013-04-06 22:05:00,
2013-04-06 18:10:00,43.6,10.0,30.18,SE,135,0.0,0.0,25,0.00,,,-99.99,Weather View 32 v60,2013-04-06 22:10:00,
2013-04-06 18:15:00,43.5,10.0,30.18,SE,135,0.0,0.0,25,0.00,,,-99.99,Weather View 32 v60,2013-04-06 22:15:00,
2013-04-06 18:30:00,43.2,10.6,30.19,SE,135,0.0,0.0,26,0.00,,,-99.99,Weather View 32 v60,2013-04-06 22:30:00,
2013-04-06 18:35:00,43.0,10.4,30.19,SE,135,0.0,0.0,26,0.00,,,-99.99,Weather View 32 v60,2013-04-06 22:35:00,
2013-04-06 18:40:00,42.9,10.3,30.19,SE,135,0.0,0.0,26,0.00,,,-99.99,Weather View 32 v60,2013-04-06 22:40:00,
2013-04-06 18:45:00,42.7,10.2,30.19,SE,135,0.0,0.0,26,0.00,,,-99.99,Weather View 32 v60,2013-04-06 22:45:00,
2013-04-06 18:55:00,42.3,10.7,30.20,SE,135,0.0,0.0,27,0.00,,,-99.99,Weather View 32 v60,2013-04-06 22:55:00,
2013-04-06 19:05:00,41.8,11.0,30.20,SE,135,0.0,0.0,28,0.00,,,-99.99,Weather View 32 v60,2013-04-06 23:05:00,
2013-04-06 19:10:00,41.5,10.8,30.20,SE,135,0.0,0.0,28,0.00,,,-99.99,Weather View 32 v60,2013-04-06 23:10:00,
2013-04-06 19:15:00,41.2,11.3,30.20,SE,135,0.0,0.0,29,0.00,,,-99.99,Weather View 32 v60,2013-04-06 23:15:00,
2013-04-06 19:20:00,40.9,11.0,30.21,SE,135,0.0,0.0,29,0.00,,,-99.99,Weather View 32 v60,2013-04-06 23:20:00,
2013-04-06 19:25:00,40.5,10.7,30.21,SE,135,0.0,0.0,29,0.00,,,-99.99,Weather View 32 v60,2013-04-06 23:25:00,
2013-04-06 19:35:00,40.0,11.0,30.22,SE,135,0.0,0.0,30,0.00,,,-99.99,Weather View 32 v60,2013-04-06 23:35:00,
2013-04-06 19:40:00,39.7,10.8,30.22,SE,135,0.0,0.0,30,0.00,,,-99.99,Weather View 32 v60,2013-04-06 23:40:00,
2013-04-06 19:49:00,39.4,12.0,30.22,SE,135,0.0,0.0,32,0.00,,,-99.99,Weather View 32 v60,2013-04-06 23:49:00,
2013-04-06 20:00:00,38.4,13.7,30.23,SE,135,0.0,0.0,36,0.00,,,-99.99,Weather View 32 v60,2013-04-07 00:00:00,
2013-04-06 20:10:00,37.7,13.1,30.24,SE,135,0.0,0.0,36,0.00,,,-99.99,Weather View 32 v60,2013-04-07 00:10:00,
2013-04-06 20:20:00,37.0,13.7,30.24,ENE,68,0.0,0.0,38,0.00,,,-99.99,Weather View 32 v60,2013-04-07 00:20:00,
2013-04-06 20:30:00,36.5,13.3,30.24,SE,135,0.0,0.0,38,0.00,,,-99.99,Weather View 32 v60,2013-04-07 00:30:00,
2013-04-06 20:35:00,36.2,14.2,30.24,SE,135,0.0,0.0,40,0.00,,,-99.99,Weather View 32 v60,2013-04-07 00:35:00,
2013-04-06 20:40:00,35.9,13.9,30.25,SE,135,0.0,0.0,40,0.00,,,-99.99,Weather View 32 v60,2013-04-07 00:40:00,
2013-04-06 20:50:00,35.3,13.4,30.24,SE,135,0.0,0.0,40,0.00,,,-99.99,Weather View 32 v60,2013-04-07 00:50:00,
2013-04-06 21:00:00,34.8,13.5,30.24,ESE,113,0.0,0.0,41,0.00,,,-99.99,Weather View 32 v60,2013-04-07 01:00:00,
2013-04-06 21:15:00,34.4,14.2,30.24,SE,135,0.0,0.0,43,0.00,,,-99.99,Weather View 32 v60,2013-04-07 01:15:00,
2013-04-06 21:20:00,34.2,13.5,30.25,SE,135,0.0,0.0,42,0.00,,,-99.99,Weather View 32 v60,2013-04-07 01:20:00,
2013-04-06 21:30:00,33.7,13.6,30.25,SE,135,0.0,0.0,43,0.00,,,-99.99,Weather View 32 v60,2013-04-07 01:30:00,
2013-04-06 21:40:00,33.2,13.1,30.24,SE,135,0.0,0.0,43,0.00,,,-99.99,Weather View 32 v60,2013-04-07 01:40:00,
2013-04-06 21:50:00,32.9,14.4,30.24,SE,135,0.0,0.0,46,0.00,,,-99.99,Weather View 32 v60,2013-04-07 01:50:00,
2013-04-06 21:55:00,32.7,14.2,30.25,SE,135,0.0,0.0,46,0.00,,,-99.99,Weather View 32 v60,2013-04-07 01:55:00,
2013-04-06 22:00:00,32.5,15.0,30.25,ESE,113,0.0,0.0,48,0.00,,,-99.99,Weather View 32 v60,2013-04-07 02:00:00,
2013-04-06 22:05:00,32.3,14.3,30.25,SE,135,0.0,0.0,47,0.00,,,-99.99,Weather View 32 v60,2013-04-07 02:05:00,
2013-04-06 22:15:00,32.0,14.0,30.25,ESE,113,0.0,0.0,47,0.00,,,-99.99,Weather View 32 v60,2013-04-07 02:15:00,
2013-04-06 22:20:00,31.9,13.9,30.25,SE,135,0.0,0.0,47,0.00,,,-99.99,Weather View 32 v60,2013-04-07 02:20:00,
2013-04-06 22:25:00,31.8,13.8,30.25,SE,135,0.0,0.0,47,0.00,,,-99.99,Weather View 32 v60,2013-04-07 02:25:00,
2013-04-06 22:35:00,31.4,14.0,30.25,SE,135,0.0,0.0,48,0.00,,,-99.99,Weather View 32 v60,2013-04-07 02:35:00,
2013-04-06 22:45:00,31.1,14.2,30.26,SE,135,0.0,0.0,49,0.00,,,-99.99,Weather View 32 v60,2013-04-07 02:45:00,
2013-04-06 22:50:00,31.0,14.5,30.26,SE,135,0.0,0.0,50,0.00,,,-99.99,Weather View 32 v60,2013-04-07 02:50:00,
2013-04-06 22:55:00,30.9,14.4,30.26,SE,135,0.0,0.0,50,0.00,,,-99.99,Weather View 32 v60,2013-04-07 02:55:00,
2013-04-06 23:00:00,30.8,14.8,30.26,SE,135,0.0,0.0,51,0.00,,,-99.99,Weather View 32 v60,2013-04-07 03:00:00,
2013-04-06 23:05:00,30.7,14.7,30.26,SE,135,0.0,0.0,51,0.00,,,-99.99,Weather View 32 v60,2013-04-07 03:05:00,
2013-04-06 23:20:00,30.5,14.5,30.26,ESE,113,0.0,0.0,51,0.00,,,-99.99,Weather View 32 v60,2013-04-07 03:20:00,
2013-04-06 23:30:00,30.2,14.2,30.27,SE,135,0.0,0.0,51,0.00,,,-99.99,Weather View 32 v60,2013-04-07 03:30:00,
2013-04-06 23:35:00,30.1,14.1,30.26,ESE,113,0.0,0.0,51,0.00,,,-99.99,Weather View 32 v60,2013-04-07 03:35:00,
2013-04-06 23:45:00,29.8,15.2,30.27,SE,135,0.0,0.0,54,0.00,,,-99.99,Weather View 32 v60,2013-04-07 03:45:00,
2013-04-06 23:50:00,29.6,15.0,30.27,ESE,113,0.0,0.0,54,0.00,,,-99.99,Weather View 32 v60,2013-04-07 03:50:00,